Find Starlink 32466

NORAD ID: 61859 Int'l Des: 2024-202 Owner: SPXS Country: US Constellation: starlink operational
LEOCIRCULAR

Live Position

Loading 3D Globe...

About Starlink 32466

Description loading...

Upcoming Passes

Passes for default location (London). Set your location on the main map for personalized predictions.

Altitude History

Loading altitude history...

Two-Line Element Set

1 61859U 24202Q 26127.12003919 .00000407 00000-0 24347-4 0 9997
2 61859 43.0042 268.0197 0001317 227.1426 132.9315 15.27556288 84277
Epoch: May 7, 2026 • Age: 12 hours

Current Status

Altitude 495.7 km
Velocity 7.62 km/s
Sub-Earth Point -43.06°S, 79.5°E
Launch Date Nov 7, 2024
Age 1.4 years
Type internet

Technical Details

Classification Payload
Mass 730.00 kg
Dry Mass 700.00 kg
Total Mass 730.00 kg
Length 0.30 m
Diameter 4.10 m
Span 29.00 m
Shape Box + pan
Manufacturer SPXS
Bus Type Starlink V2M
Phase Status In Orbit
Owner/State SPXS/US

Most Searched